This demonstration page uses our WeatherBlox Daily Observations layout. Learn more.

Left ArrowRight Arrow

Hourly Observations for October 5, 2018

Temp ( °F °C ) Dew Point ( °F °C ) Humidity (%) Winds ( mph kmh ) Pressure ( in mb ) Visibility ( mi km ) Precip ( " mm )
12:23 am 00:23 Cloudy 48 8.9 46 7.8 93 93 SW 5 7 30.03 1017 10 16.0934 0 0
12:54 am 00:54 Cloudy 49 9.4 46 7.8 90 90 S 5 7 29.99 1016 10 16.0934 0 0
1:54 am 01:54 Cloudy 49 9.4 46 7.8 90 90 WNW 6 9 29.99 1016 10 16.0934 0 0
2:04 am 02:04 Cloudy 49 9.4 46 7.8 90 90 WNW 7 11 30.03 1017 10 16.0934 0 0
2:11 am 02:11 Cloudy 49 9.4 46 7.8 90 90 WNW 6 9 30.03 1017 10 16.0934 0 0
2:54 am 02:54 Cloudy 48 8.9 45 7.2 89 89 WNW 3 6 29.98 1015 10 16.0934 0 0
3:06 am 03:06 Cloudy 48 8.9 46 7.8 93 93 Calm 30 1016 10 16.0934 0 0
3:54 am 03:54 Cloudy 48 8.9 45 7.2 89 89 NW 3 6 29.96 1015 10 16.0934 0 0
4:54 am 04:54 Cloudy 48 8.9 45 7.2 89 89 Calm 29.96 1015 10 16.0934 0 0
5:54 am 05:54 Cloudy 48 8.9 44 6.7 86 86 Calm 29.96 1015 10 16.0934 0 0
6:54 am 06:54 Cloudy 49 9.4 45 7.2 86 86 Calm 29.96 1015 10 16.0934 0 0
7:42 am 07:42 Cloudy 48 8.9 45 7.2 89 89 Calm 30 1016 10 16.0934 0 0
7:54 am 07:54 Cloudy 49 9.4 45 7.2 86 86 Calm 29.97 1015 10 16.0934 0 0
8:16 am 08:16 Cloudy 48 8.9 46 7.8 93 93 NNE 5 7 30 1016 9 14.48406 0 0
8:54 am 08:54 Cloudy 50 10 46 7.8 86 86 Calm 29.94 1014 10 16.0934 0 0
9:54 am 09:54 Cloudy 50 10 47 8.3 89 89 WSW 3 6 29.96 1015 10 16.0934 0 0
10:18 am 10:18 Cloudy with Light Rain 51 10.6 48 8.9 89 89 SSW 10 17 30 1016 10 16.0934 0 0.0254
10:27 am 10:27 Cloudy with Nearby Thunderstorms 51 10.6 48 8.9 89 89 SW 7 11 30 1016 7 11.26538 0 0.0254
10:46 am 10:46 Cloudy with Nearby Thunderstorms 51 10.6 48 8.9 89 89 NE 9 15 29.91 1013 3 4.82802 0.02 0.508
10:54 am 10:54 Cloudy with Nearby Thunderstorms 51 10.6 49 9.4 92 92 SSE 5 7 29.96 1015 4 6.43736 0.03 0.762
11:07 am 11:07 Cloudy with Light Rain 51 10.6 49 9.4 92 92 E 8 13 29.91 1013 5 8.0467 0.02 0.508
11:36 am 11:36 Mostly Cloudy 53 11.7 50 10 89 89 SSE 6 9 29.91 1013 8 12.87472 0.02 0.508
11:45 am 11:45 Cloudy 53 11.7 49 9.4 86 86 SSE 5 7 29.91 1013 8 12.87472 0.02 0.508
11:54 am 11:54 Cloudy 53 11.7 49 9.4 86 86 S 7 11 29.93 1014 8 12.87472 0.02 0.508
12:54 pm 12:54 Cloudy 53 11.7 50 10 89 89 SSE 7 11 29.91 1013 10 16.0934 0 0.0254
1:05 pm 13:05 Cloudy 54 12.2 50 10 87 87 S 7 11 29.91 1013 10 16.0934 0 0
1:19 pm 13:19 Cloudy 54 12.2 50 10 87 87 SSE 6 9 29.91 1013 10 16.0934 0 0
1:54 pm 13:54 Cloudy 54 12.2 50 10 87 87 Calm 29.89 1012 10 16.0934 0 0
2:54 pm 14:54 Cloudy with Light Rain 54 12.2 52 11.1 93 93 E 3 6 29.88 1012 2.5 4.02335 0 0.0254
3:07 pm 15:07 Cloudy with Mist and Fog 54 12.2 52 11.1 93 93 NE 3 6 29.88 1012 4 6.43736 0 0.0254
3:19 pm 15:19 Cloudy with Mist and Fog 55 12.8 52 11.1 90 90 ENE 5 7 29.85 1011 1.75 2.816345 0 0.0254
3:54 pm 15:54 Cloudy with Mist and Fog 54 12.2 53 11.7 97 97 NE 5 7 29.85 1011 1 1.60934 0 0.0254
4:54 pm 16:54 Cloudy with Light Rain 55 12.8 53 11.7 93 93 N 8 13 29.86 1011 1.5 2.41401 0.01 0.254
5:54 pm 17:54 Cloudy with Mist and Fog 54 12.2 53 11.7 97 97 N 10 17 29.89 1012 1.5 2.41401 0 0.0254
6:54 pm 18:54 Cloudy with Light Rain 54 12.2 53 11.7 97 97 NNW 9 15 29.92 1013 2 3.21868 0.02 0.508
7:00 pm 19:00 Cloudy with Light Rain 54 12.2 53 11.7 97 97 NNW 9 15 29.91 1013 3 4.82802 0 0.0254
7:07 pm 19:07 Cloudy with Light Rain 54 12.2 53 11.7 97 97 NNW 10 17 29.94 1014 3 4.82802 0 0.0254
7:36 pm 19:36 Cloudy with Mist and Fog 54 12.2 53 11.7 97 97 NNW 10 17 29.94 1014 3 4.82802 0 0.0254
7:44 pm 19:44 Cloudy with Mist and Fog 54 12.2 52 11.1 93 93 NNW 12 19 29.94 1014 4 6.43736 0 0.0254
7:54 pm 19:54 Cloudy with Light Rain 54 12.2 52 11.1 93 93 N 9 15 29.93 1014 4 6.43736 0 0.0254
8:01 pm 20:01 Cloudy with Light Rain 54 12.2 53 11.7 97 97 N 9 15 29.94 1014 4 6.43736 0 0.0254
8:18 pm 20:18 Cloudy with Mist and Fog 54 12.2 53 11.7 97 97 N 7 11 29.94 1014 4 6.43736 0 0.0254
8:42 pm 20:42 Cloudy 54 12.2 52 11.1 93 93 N 9 15 29.94 1014 10 16.0934 0 0.0254
8:54 pm 20:54 Cloudy 54 12.2 52 11.1 93 93 N 10 17 29.95 1014 10 16.0934 0 0.0254
9:22 pm 21:22 Cloudy 54 12.2 52 11.1 93 93 N 10 17 29.97 1015 10 16.0934 0 0
9:54 pm 21:54 Cloudy 53 11.7 50 10 89 89 N 28 44 29.97 1015 10 16.0934 0 0
10:15 pm 22:15 Cloudy 51 10.6 48 8.9 89 89 N 17 28 30 1016 8 12.87472 0 0
10:22 pm 22:22 Cloudy 50 10 48 8.9 93 93 N 16 26 30.03 1017 8 12.87472 0 0
10:36 pm 22:36 Cloudy 50 10 47 8.3 89 89 N 17 28 30.03 1017 9 14.48406 0 0
10:54 pm 22:54 Cloudy 50 10 47 8.3 89 89 N 14 22 30.03 1017 9 14.48406 0 0
11:54 pm 23:54 Cloudy 49 9.4 45 7.2 86 86 N 16 26 30.04 1017 9 14.48406 0 0

Powered by AerisWeather